contact:dominique.lefevre@mio.osupytheas.fr, maurice.libes@osupytheas.fr, didier.mallarino@osupytheas.fr
Project:EMSO http://www.emso-fr.org/EMSO-France
Depth: 2436.0 m
Title:EMSO Ligure Ouest : Data MII capteur MICROCAT
DateTime_Computer,Latitude,Longitude,Temperature,Conductivity,Pressure,DateTime_Instrument
DateTime_Computer,Latitude,Longitude,degC,S m-1,dbar,DateTime_Instrument
2020-09-14T00:02:53Z,42.805,6.029,13.2971,4.59973,2470.087,2020-9-14T02:03:45Z
2020-09-14T00:05:56Z,42.805,6.029,13.2975,4.59973,2470.063,2020-9-14T02:06:48Z
2020-09-14T00:09:00Z,42.805,6.029,13.2972,4.59974,2470.087,2020-9-14T02:09:51Z
2020-09-14T00:12:05Z,42.805,6.029,13.2974,4.59973,2470.087,2020-9-14T02:12:56Z
2020-09-14T00:15:09Z,42.805,6.029,13.2973,4.59975,2470.077,2020-9-14T02:16:00Z
2020-09-14T00:18:12Z,42.805,6.029,13.2969,4.59973,2470.087,2020-9-14T02:19:04Z
2020-09-14T00:21:13Z,42.805,6.029,13.2971,4.59974,2470.087,2020-9-14T02:22:05Z
2020-09-14T00:24:18Z,42.805,6.029,13.2972,4.59975,2470.063,2020-9-14T02:25:10Z
2020-09-14T00:27:22Z,42.805,6.029,13.2972,4.59974,2470.124,2020-9-14T02:28:14Z
2020-09-14T00:30:24Z,42.805,6.029,13.2976,4.59974,2470.063,2020-9-14T02:31:15Z
2020-09-14T00:33:26Z,42.805,6.029,13.2973,4.59973,2470.063,2020-9-14T02:34:18Z
2020-09-14T00:36:30Z,42.805,6.029,13.2974,4.59973,2470.087,2020-9-14T02:37:22Z
2020-09-14T00:39:33Z,42.805,6.029,13.2970,4.59975,2470.087,2020-9-14T02:40:24Z
2020-09-14T00:42:37Z,42.805,6.029,13.2971,4.59973,2470.1,2020-9-14T02:43:29Z
2020-09-14T00:45:41Z,42.805,6.029,13.2973,4.59973,2470.077,2020-9-14T02:46:33Z
2020-09-14T00:48:45Z,42.805,6.029,13.2977,4.59973,2470.11,2020-9-14T02:49:36Z
2020-09-14T00:51:48Z,42.805,6.029,13.2974,4.59974,2470.11,2020-9-14T02:52:40Z
2020-09-14T00:54:51Z,42.805,6.029,13.2971,4.59973,2470.087,2020-9-14T02:55:43Z
2020-09-14T00:57:55Z,42.805,6.029,13.2974,4.59974,2470.087,2020-9-14T02:58:46Z
2020-09-14T01:00:57Z,42.805,6.029,13.2971,4.59973,2470.11,2020-9-14T03:01:49Z
2020-09-14T01:04:01Z,42.805,6.029,13.2975,4.59973,2470.087,2020-9-14T03:04:52Z
2020-09-14T01:07:03Z,42.805,6.029,13.2975,4.59973,2470.087,2020-9-14T03:07:55Z
2020-09-14T01:10:07Z,42.805,6.029,13.2973,4.59975,2470.11,2020-9-14T03:10:59Z
2020-09-14T01:13:11Z,42.805,6.029,13.2974,4.59974,2470.124,2020-9-14T03:14:02Z
2020-09-14T01:16:15Z,42.805,6.029,13.2977,4.59974,2470.063,2020-9-14T03:17:06Z
2020-09-14T01:19:18Z,42.805,6.029,13.2972,4.59974,2470.087,2020-9-14T03:20:10Z
2020-09-14T01:22:20Z,42.805,6.029,13.2970,4.59973,2470.124,2020-9-14T03:23:12Z
2020-09-14T01:25:24Z,42.805,6.029,13.2974,4.59973,2470.087,2020-9-14T03:26:15Z
2020-09-14T01:28:28Z,42.805,6.029,13.2973,4.59974,2470.1,2020-9-14T03:29:20Z
2020-09-14T01:31:31Z,42.805,6.029,13.2974,4.59974,2470.11,2020-9-14T03:32:22Z
2020-09-14T01:34:34Z,42.805,6.029,13.2972,4.59974,2470.087,2020-9-14T03:35:26Z
2020-09-14T01:37:38Z,42.805,6.029,13.2971,4.59973,2470.063,2020-9-14T03:38:29Z
2020-09-14T01:40:43Z,42.805,6.029,13.2976,4.59973,2470.1,2020-9-14T03:41:34Z
2020-09-14T01:43:46Z,42.805,6.029,13.2972,4.59974,2470.11,2020-9-14T03:44:38Z
2020-09-14T01:46:47Z,42.805,6.029,13.2974,4.59974,2470.087,2020-9-14T03:47:39Z
2020-09-14T01:49:50Z,42.805,6.029,13.2973,4.59973,2470.087,2020-9-14T03:50:42Z
2020-09-14T01:52:54Z,42.805,6.029,13.2972,4.59973,2470.11,2020-9-14T03:53:46Z
2020-09-14T01:55:56Z,42.805,6.029,13.2974,4.59973,2470.077,2020-9-14T03:56:47Z
2020-09-14T01:58:59Z,42.805,6.029,13.2974,4.59973,2470.11,2020-9-14T03:59:50Z
2020-09-14T02:02:00Z,42.805,6.029,13.2974,4.59974,2470.124,2020-9-14T04:02:51Z
2020-09-14T02:05:02Z,42.805,6.029,13.2973,4.59974,2470.087,2020-9-14T04:05:54Z
2020-09-14T02:08:06Z,42.805,6.029,13.2972,4.59975,2470.11,2020-9-14T04:08:57Z
2020-09-14T02:11:09Z,42.805,6.029,13.2969,4.59975,2470.11,2020-9-14T04:12:01Z
2020-09-14T02:14:10Z,42.805,6.029,13.2968,4.59973,2470.1,2020-9-14T04:15:02Z
2020-09-14T02:17:14Z,42.805,6.029,13.2971,4.59974,2470.11,2020-9-14T04:18:06Z
2020-09-14T02:20:18Z,42.805,6.029,13.2971,4.59974,2470.11,2020-9-14T04:21:09Z
2020-09-14T02:23:21Z,42.805,6.029,13.2973,4.59974,2470.124,2020-9-14T04:24:13Z
2020-09-14T02:26:25Z,42.805,6.029,13.2974,4.59975,2470.1,2020-9-14T04:27:17Z
2020-09-14T02:29:28Z,42.805,6.029,13.2970,4.59973,2470.171,2020-9-14T04:30:19Z
2020-09-14T02:32:31Z,42.805,6.029,13.2972,4.59974,2470.11,2020-9-14T04:33:23Z
2020-09-14T02:35:33Z,42.805,6.029,13.2971,4.59976,2470.11,2020-9-14T04:36:25Z
2020-09-14T02:38:36Z,42.805,6.029,13.2973,4.59975,2470.11,2020-9-14T04:39:28Z
2020-09-14T02:41:41Z,42.805,6.029,13.2976,4.59974,2470.147,2020-9-14T04:42:33Z
2020-09-14T02:44:45Z,42.805,6.029,13.2971,4.59973,2470.11,2020-9-14T04:45:36Z
2020-09-14T02:47:49Z,42.805,6.029,13.2974,4.59975,2470.133,2020-9-14T04:48:41Z
2020-09-14T02:50:54Z,42.805,6.029,13.2968,4.59974,2470.147,2020-9-14T04:51:46Z
2020-09-14T02:53:58Z,42.805,6.029,13.2971,4.59974,2470.133,2020-9-14T04:54:49Z
2020-09-14T02:57:01Z,42.805,6.029,13.2971,4.59975,2470.133,2020-9-14T04:57:52Z
2020-09-14T03:00:04Z,42.805,6.029,13.2970,4.59974,2470.133,2020-9-14T05:00:56Z
2020-09-14T03:03:07Z,42.805,6.029,13.2976,4.59974,2470.11,2020-9-14T05:03:59Z
2020-09-14T03:06:10Z,42.805,6.029,13.2972,4.59974,2470.18,2020-9-14T05:07:02Z
2020-09-14T03:09:14Z,42.805,6.029,13.2971,4.59974,2470.171,2020-9-14T05:10:05Z
2020-09-14T03:12:15Z,42.805,6.029,13.2968,4.59974,2470.156,2020-9-14T05:13:07Z
2020-09-14T03:15:19Z,42.805,6.029,13.2976,4.59974,2470.156,2020-9-14T05:16:11Z
2020-09-14T03:18:23Z,42.805,6.029,13.2971,4.59974,2470.156,2020-9-14T05:19:14Z
2020-09-14T03:21:28Z,42.805,6.029,13.2972,4.59974,2470.147,2020-9-14T05:22:19Z
2020-09-14T03:24:32Z,42.805,6.029,13.2974,4.59974,2470.133,2020-9-14T05:25:24Z
2020-09-14T03:27:35Z,42.805,6.029,13.2971,4.59974,2470.156,2020-9-14T05:28:27Z
2020-09-14T03:30:39Z,42.805,6.029,13.2972,4.59975,2470.133,2020-9-14T05:31:30Z
2020-09-14T03:33:40Z,42.805,6.029,13.2975,4.59973,2470.119,2020-9-14T05:34:32Z
2020-09-14T03:36:44Z,42.805,6.029,13.2976,4.59974,2470.133,2020-9-14T05:37:35Z
2020-09-14T03:39:47Z,42.805,6.029,13.2974,4.59974,2470.147,2020-9-14T05:40:39Z
2020-09-14T03:42:52Z,42.805,6.029,13.2976,4.59975,2470.156,2020-9-14T05:43:43Z
2020-09-14T03:45:55Z,42.805,6.029,13.2973,4.59974,2470.133,2020-9-14T05:46:47Z
2020-09-14T03:48:59Z,42.805,6.029,13.2974,4.59974,2470.156,2020-9-14T05:49:50Z
2020-09-14T03:52:03Z,42.805,6.029,13.2976,4.59975,2470.171,2020-9-14T05:52:54Z
2020-09-14T03:55:06Z,42.805,6.029,13.2975,4.59974,2470.156,2020-9-14T05:55:58Z
2020-09-14T03:58:08Z,42.805,6.029,13.2971,4.59975,2470.133,2020-9-14T05:59:00Z
2020-09-14T04:01:10Z,42.805,6.029,13.2971,4.59974,2470.18,2020-9-14T06:02:02Z
2020-09-14T04:04:14Z,42.805,6.029,13.2974,4.59974,2470.133,2020-9-14T06:05:05Z
2020-09-14T04:07:17Z,42.805,6.029,13.2974,4.59973,2470.156,2020-9-14T06:08:09Z
2020-09-14T04:10:20Z,42.805,6.029,13.2974,4.59976,2470.11,2020-9-14T06:11:12Z
2020-09-14T04:13:24Z,42.805,6.029,13.2974,4.59974,2470.11,2020-9-14T06:14:16Z
2020-09-14T04:16:27Z,42.805,6.029,13.2971,4.59975,2470.11,2020-9-14T06:17:19Z
2020-09-14T04:19:31Z,42.805,6.029,13.2975,4.59976,2470.156,2020-9-14T06:20:23Z
2020-09-14T04:22:35Z,42.805,6.029,13.2972,4.59976,2470.119,2020-9-14T06:23:27Z
2020-09-14T04:28:41Z,42.805,6.029,13.2974,4.59975,2470.18,2020-9-14T06:29:32Z
2020-09-14T04:31:46Z,42.805,6.029,13.2971,4.59975,2470.133,2020-9-14T06:32:37Z
2020-09-14T04:34:49Z,42.805,6.029,13.2975,4.59974,2470.171,2020-9-14T06:35:39Z
2020-09-14T04:37:50Z,42.805,6.029,13.2972,4.59973,2470.18,2020-9-14T06:38:41Z
2020-09-14T04:40:54Z,42.805,6.029,13.2972,4.59974,2470.171,2020-9-14T06:41:46Z
2020-09-14T04:43:59Z,42.805,6.029,13.2967,4.59974,2470.11,2020-9-14T06:44:50Z
2020-09-14T04:47:01Z,42.805,6.029,13.2970,4.59974,2470.171,2020-9-14T06:47:53Z
2020-09-14T04:50:03Z,42.805,6.029,13.2974,4.59975,2470.171,2020-9-14T06:50:55Z
2020-09-14T04:53:06Z,42.805,6.029,13.2971,4.59974,2470.171,2020-9-14T06:53:57Z
2020-09-14T04:56:08Z,42.805,6.029,13.2972,4.59973,2470.18,2020-9-14T06:57:00Z
2020-09-14T04:59:10Z,42.805,6.029,13.2973,4.59973,2470.124,2020-9-14T07:00:02Z
2020-09-14T05:02:13Z,42.805,6.029,13.2971,4.59974,2470.133,2020-9-14T07:03:05Z
2020-09-14T05:05:15Z,42.805,6.029,13.2973,4.59973,2470.133,2020-9-14T07:06:07Z
2020-09-14T05:08:18Z,42.805,6.029,13.2977,4.59974,2470.18,2020-9-14T07:09:10Z
2020-09-14T05:11:19Z,42.805,6.029,13.2969,4.59974,2470.11,2020-9-14T07:12:11Z
2020-09-14T05:14:24Z,42.805,6.029,13.2976,4.59974,2470.171,2020-9-14T07:15:15Z
2020-09-14T05:17:27Z,42.805,6.029,13.2972,4.59974,2470.133,2020-9-14T07:18:19Z
2020-09-14T05:20:32Z,42.805,6.029,13.2974,4.59978,2470.156,2020-9-14T07:21:23Z
2020-09-14T05:23:35Z,42.805,6.029,13.2975,4.59973,2470.171,2020-9-14T07:24:27Z
2020-09-14T05:26:38Z,42.805,6.029,13.2971,4.59973,2470.133,2020-9-14T07:27:30Z
2020-09-14T05:29:42Z,42.805,6.029,13.2974,4.59973,2470.171,2020-9-14T07:30:33Z
2020-09-14T05:32:46Z,42.805,6.029,13.2975,4.59973,2470.156,2020-9-14T07:33:38Z
2020-09-14T05:35:50Z,42.805,6.029,13.2974,4.59973,2470.18,2020-9-14T07:36:41Z
2020-09-14T05:38:52Z,42.805,6.029,13.2974,4.59975,2470.156,2020-9-14T07:39:44Z
2020-09-14T05:41:56Z,42.805,6.029,13.2973,4.59974,2470.133,2020-9-14T07:42:47Z
2020-09-14T05:44:59Z,42.805,6.029,13.2972,4.59975,2470.147,2020-9-14T07:45:51Z
2020-09-14T05:48:01Z,42.805,6.029,13.2971,4.59974,2470.203,2020-9-14T07:48:53Z
2020-09-14T05:51:06Z,42.805,6.029,13.2975,4.59975,2470.11,2020-9-14T07:51:57Z
2020-09-14T05:54:08Z,42.805,6.029,13.2971,4.59975,2470.147,2020-9-14T07:54:59Z
2020-09-14T05:57:09Z,42.805,6.029,13.2976,4.59973,2470.124,2020-9-14T07:58:01Z
2020-09-14T06:00:13Z,42.805,6.029,13.2972,4.59976,2470.147,2020-9-14T08:01:05Z
2020-09-14T06:03:15Z,42.805,6.029,13.2972,4.59973,2470.133,2020-9-14T08:04:06Z
2020-09-14T06:06:17Z,42.805,6.029,13.2974,4.59974,2470.147,2020-9-14T08:07:09Z
2020-09-14T06:09:20Z,42.805,6.029,13.2973,4.59974,2470.11,2020-9-14T08:10:12Z
2020-09-14T06:12:24Z,42.805,6.029,13.2971,4.59974,2470.11,2020-9-14T08:13:15Z
2020-09-14T06:15:27Z,42.805,6.029,13.2969,4.59974,2470.156,2020-9-14T08:16:19Z
2020-09-14T06:18:30Z,42.805,6.029,13.2975,4.59975,2470.11,2020-9-14T08:19:21Z
2020-09-14T06:21:34Z,42.805,6.029,13.2974,4.59975,2470.156,2020-9-14T08:22:25Z
2020-09-14T06:24:38Z,42.805,6.029,13.2971,4.59976,2470.124,2020-9-14T08:25:29Z
2020-09-14T06:27:41Z,42.805,6.029,13.2970,4.59974,2470.11,2020-9-14T08:28:33Z
2020-09-14T06:30:45Z,42.805,6.029,13.2975,4.59974,2470.124,2020-9-14T08:31:36Z
2020-09-14T06:33:46Z,42.805,6.029,13.2971,4.59974,2470.133,2020-9-14T08:34:38Z
2020-09-14T06:36:49Z,42.805,6.029,13.2974,4.59974,2470.147,2020-9-14T08:37:41Z
2020-09-14T06:39:51Z,42.805,6.029,13.2972,4.59973,2470.11,2020-9-14T08:40:43Z
2020-09-14T06:42:55Z,42.805,6.029,13.2971,4.59973,2470.147,2020-9-14T08:43:46Z
2020-09-14T06:45:59Z,42.805,6.029,13.2971,4.59973,2470.133,2020-9-14T08:46:51Z
2020-09-14T06:49:01Z,42.805,6.029,13.2974,4.59974,2470.156,2020-9-14T08:49:52Z
2020-09-14T06:52:02Z,42.805,6.029,13.2971,4.59975,2470.147,2020-9-14T08:52:54Z
2020-09-14T06:55:07Z,42.805,6.029,13.2971,4.59974,2470.133,2020-9-14T08:55:58Z
2020-09-14T06:58:10Z,42.805,6.029,13.2976,4.59973,2470.11,2020-9-14T08:59:02Z
2020-09-14T07:01:14Z,42.805,6.029,13.2975,4.59973,2470.133,2020-9-14T09:02:05Z
2020-09-14T07:04:15Z,42.805,6.029,13.2971,4.59975,2470.124,2020-9-14T09:05:06Z
2020-09-14T07:07:18Z,42.805,6.029,13.2974,4.59975,2470.124,2020-9-14T09:08:09Z
2020-09-14T07:10:20Z,42.805,6.029,13.2973,4.59975,2470.087,2020-9-14T09:11:11Z
2020-09-14T07:13:22Z,42.805,6.029,13.2969,4.59974,2470.133,2020-9-14T09:14:14Z
2020-09-14T07:16:27Z,42.805,6.029,13.2971,4.59974,2470.11,2020-9-14T09:17:19Z
2020-09-14T07:19:32Z,42.805,6.029,13.2970,4.59973,2470.147,2020-9-14T09:20:24Z
2020-09-14T07:22:35Z,42.805,6.029,13.2972,4.59974,2470.124,2020-9-14T09:23:27Z
2020-09-14T07:25:40Z,42.805,6.029,13.2975,4.59974,2470.087,2020-9-14T09:26:32Z
2020-09-14T07:28:42Z,42.805,6.029,13.2975,4.59973,2470.11,2020-9-14T09:29:34Z
2020-09-14T07:31:44Z,42.805,6.029,13.2976,4.59974,2470.11,2020-9-14T09:32:35Z
2020-09-14T07:34:45Z,42.805,6.029,13.2974,4.59974,2470.11,2020-9-14T09:35:37Z
2020-09-14T07:37:50Z,42.805,6.029,13.2974,4.59973,2470.133,2020-9-14T09:38:42Z
2020-09-14T07:40:54Z,42.805,6.029,13.2975,4.59976,2470.096,2020-9-14T09:41:46Z
2020-09-14T07:43:57Z,42.805,6.029,13.2970,4.59974,2470.11,2020-9-14T09:44:49Z
2020-09-14T07:47:00Z,42.805,6.029,13.2974,4.59974,2470.11,2020-9-14T09:47:52Z
2020-09-14T07:50:04Z,42.805,6.029,13.2977,4.59974,2470.087,2020-9-14T09:50:55Z
2020-09-14T07:53:06Z,42.805,6.029,13.2970,4.59973,2470.096,2020-9-14T09:53:57Z
2020-09-14T07:56:10Z,42.805,6.029,13.2972,4.59973,2470.11,2020-9-14T09:57:01Z
2020-09-14T07:59:14Z,42.805,6.029,13.2971,4.59974,2470.147,2020-9-14T10:00:06Z
2020-09-14T08:02:16Z,42.805,6.029,13.2972,4.59974,2470.133,2020-9-14T10:03:07Z
2020-09-14T08:05:20Z,42.805,6.029,13.2973,4.59974,2470.1,2020-9-14T10:06:11Z
2020-09-14T08:08:24Z,42.805,6.029,13.2971,4.59973,2470.087,2020-9-14T10:09:16Z
2020-09-14T08:11:26Z,42.805,6.029,13.2974,4.59973,2470.063,2020-9-14T10:12:18Z
2020-09-14T08:14:29Z,42.805,6.029,13.2971,4.59973,2470.073,2020-9-14T10:15:21Z
2020-09-14T08:17:33Z,42.805,6.029,13.2974,4.59973,2470.077,2020-9-14T10:18:24Z
2020-09-14T08:20:35Z,42.805,6.029,13.2975,4.59973,2470.1,2020-9-14T10:21:27Z
2020-09-14T08:23:39Z,42.805,6.029,13.2973,4.59973,2470.087,2020-9-14T10:24:30Z
2020-09-14T08:26:42Z,42.805,6.029,13.2976,4.59974,2470.063,2020-9-14T10:27:34Z
2020-09-14T08:29:45Z,42.805,6.029,13.2971,4.59973,2470.077,2020-9-14T10:30:37Z
2020-09-14T08:32:49Z,42.805,6.029,13.2974,4.59973,2470.063,2020-9-14T10:33:40Z
2020-09-14T08:35:53Z,42.805,6.029,13.2971,4.59974,2470.087,2020-9-14T10:36:45Z
2020-09-14T08:38:57Z,42.805,6.029,13.2972,4.59974,2470.1,2020-9-14T10:39:48Z
2020-09-14T08:42:01Z,42.805,6.029,13.2978,4.59975,2470.049,2020-9-14T10:42:52Z
2020-09-14T08:45:03Z,42.805,6.029,13.2971,4.59973,2470.063,2020-9-14T10:45:54Z
2020-09-14T08:48:06Z,42.805,6.029,13.2975,4.59973,2470.063,2020-9-14T10:48:58Z
2020-09-14T08:51:09Z,42.805,6.029,13.2972,4.59974,2470.04,2020-9-14T10:52:01Z
2020-09-14T08:54:13Z,42.805,6.029,13.2974,4.59974,2470.063,2020-9-14T10:55:05Z
2020-09-14T08:57:17Z,42.805,6.029,13.2971,4.59974,2470.063,2020-9-14T10:58:08Z
2020-09-14T09:00:20Z,42.805,6.029,13.2973,4.59973,2470.063,2020-9-14T11:01:11Z
2020-09-14T09:03:23Z,42.805,6.029,13.2974,4.59974,2470.04,2020-9-14T11:04:15Z
2020-09-14T09:06:26Z,42.805,6.029,13.2973,4.59973,2470.04,2020-9-14T11:07:18Z
2020-09-14T09:09:31Z,42.805,6.029,13.2974,4.59973,2470.04,2020-9-14T11:10:22Z
2020-09-14T09:12:34Z,42.805,6.029,13.2971,4.59973,2470.063,2020-9-14T11:13:26Z
2020-09-14T09:15:38Z,42.805,6.029,13.2974,4.59974,2470.04,2020-9-14T11:16:29Z
2020-09-14T09:18:42Z,42.805,6.029,13.2969,4.59974,2470.053,2020-9-14T11:19:33Z
2020-09-14T09:21:44Z,42.805,6.029,13.2972,4.59974,2470.04,2020-9-14T11:22:36Z
2020-09-14T09:24:46Z,42.805,6.029,13.2976,4.59973,2470.053,2020-9-14T11:25:38Z
2020-09-14T09:27:47Z,42.805,6.029,13.2973,4.59973,2470.087,2020-9-14T11:28:39Z
2020-09-14T09:30:51Z,42.805,6.029,13.2972,4.59974,2470.04,2020-9-14T11:31:42Z
2020-09-14T09:33:53Z,42.805,6.029,13.2971,4.59973,2470.04,2020-9-14T11:34:45Z
2020-09-14T09:36:58Z,42.805,6.029,13.2976,4.59973,2470.053,2020-9-14T11:37:49Z
2020-09-14T09:40:01Z,42.805,6.029,13.2971,4.59974,2470.017,2020-9-14T11:40:53Z
2020-09-14T09:43:03Z,42.805,6.029,13.2971,4.59973,2470.03,2020-9-14T11:43:55Z
2020-09-14T09:46:06Z,42.805,6.029,13.2971,4.59973,2470.03,2020-9-14T11:46:58Z
2020-09-14T09:49:08Z,42.805,6.029,13.2976,4.59973,2470.04,2020-9-14T11:50:00Z
2020-09-14T09:52:10Z,42.805,6.029,13.2974,4.59974,2470.087,2020-9-14T11:53:02Z
2020-09-14T09:55:15Z,42.805,6.029,13.2968,4.59975,2470.017,2020-9-14T11:56:06Z
2020-09-14T09:58:18Z,42.805,6.029,13.2971,4.59973,2470.03,2020-9-14T11:59:10Z
2020-09-14T10:01:22Z,42.805,6.029,13.2972,4.59973,2470.017,2020-9-14T12:02:13Z
2020-09-14T10:04:23Z,42.805,6.029,13.2974,4.59973,2470.063,2020-9-14T12:05:14Z
2020-09-14T10:07:25Z,42.805,6.029,13.2971,4.59974,2470.03,2020-9-14T12:08:16Z
2020-09-14T10:10:28Z,42.805,6.029,13.2970,4.59973,2470.003,2020-9-14T12:11:20Z
2020-09-14T10:13:31Z,42.805,6.029,13.2975,4.59973,2470.017,2020-9-14T12:14:23Z
2020-09-14T10:16:35Z,42.805,6.029,13.2975,4.59973,2470.017,2020-9-14T12:17:26Z
2020-09-14T10:19:38Z,42.805,6.029,13.2971,4.59974,2470.017,2020-9-14T12:20:29Z
2020-09-14T10:22:42Z,42.805,6.029,13.2972,4.59975,2469.993,2020-9-14T12:23:33Z
2020-09-14T10:25:43Z,42.805,6.029,13.2974,4.59974,2470.063,2020-9-14T12:26:35Z
2020-09-14T10:28:46Z,42.805,6.029,13.2971,4.59973,2470.077,2020-9-14T12:29:38Z
2020-09-14T10:31:51Z,42.805,6.029,13.2971,4.59973,2470.053,2020-9-14T12:32:42Z
2020-09-14T10:34:53Z,42.805,6.029,13.2973,4.59974,2470.017,2020-9-14T12:35:45Z
2020-09-14T10:37:55Z,42.805,6.029,13.2974,4.59973,2470.03,2020-9-14T12:38:46Z
2020-09-14T10:40:58Z,42.805,6.029,13.2970,4.59974,2469.993,2020-9-14T12:41:50Z
2020-09-14T10:44:00Z,42.805,6.029,13.2974,4.59975,2470.03,2020-9-14T12:44:51Z
2020-09-14T10:47:01Z,42.805,6.029,13.2972,4.59974,2470.017,2020-9-14T12:47:53Z
2020-09-14T10:50:04Z,42.805,6.029,13.2972,4.59974,2470.053,2020-9-14T12:50:55Z
2020-09-14T10:53:05Z,42.805,6.029,13.2971,4.59973,2470.04,2020-9-14T12:53:57Z
2020-09-14T10:56:07Z,42.805,6.029,13.2974,4.59973,2470.053,2020-9-14T12:56:58Z
2020-09-14T10:59:11Z,42.805,6.029,13.2973,4.59974,2470.053,2020-9-14T13:00:02Z
2020-09-14T11:02:14Z,42.805,6.029,13.2974,4.59974,2470.03,2020-9-14T13:03:05Z
2020-09-14T11:05:17Z,42.805,6.029,13.2975,4.59974,2470.04,2020-9-14T13:06:09Z
2020-09-14T11:08:20Z,42.805,6.029,13.2974,4.59974,2470.017,2020-9-14T13:09:12Z
2020-09-14T11:11:24Z,42.805,6.029,13.2976,4.59974,2469.993,2020-9-14T13:12:15Z
2020-09-14T11:14:27Z,42.805,6.029,13.2971,4.59974,2470.017,2020-9-14T13:15:19Z
2020-09-14T11:17:30Z,42.805,6.029,13.2971,4.59973,2470.017,2020-9-14T13:18:22Z
2020-09-14T11:20:34Z,42.805,6.029,13.2975,4.59976,2470.053,2020-9-14T13:21:25Z
2020-09-14T11:23:37Z,42.805,6.029,13.2970,4.59974,2470.063,2020-9-14T13:24:29Z
2020-09-14T11:26:40Z,42.805,6.029,13.2968,4.59974,2470.017,2020-9-14T13:27:32Z
2020-09-14T11:29:45Z,42.805,6.029,13.2974,4.59974,2470.03,2020-9-14T13:30:37Z
2020-09-14T11:32:46Z,42.805,6.029,13.2974,4.59973,2470.04,2020-9-14T13:33:38Z
2020-09-14T11:35:50Z,42.805,6.029,13.2976,4.59973,2470.04,2020-9-14T13:36:42Z
2020-09-14T11:38:54Z,42.805,6.029,13.2974,4.59973,2470.04,2020-9-14T13:39:46Z
2020-09-14T11:41:58Z,42.805,6.029,13.2974,4.59976,2470.04,2020-9-14T13:42:50Z
2020-09-14T11:45:01Z,42.805,6.029,13.2971,4.59974,2470.04,2020-9-14T13:45:53Z
2020-09-14T11:48:06Z,42.805,6.029,13.2974,4.59974,2470.04,2020-9-14T13:48:57Z
2020-09-14T11:51:07Z,42.805,6.029,13.2969,4.59976,2470.003,2020-9-14T13:51:58Z
2020-09-14T11:54:08Z,42.805,6.029,13.2973,4.59976,2470.017,2020-9-14T13:55:00Z
2020-09-14T11:57:13Z,42.805,6.029,13.2971,4.59974,2470.03,2020-9-14T13:58:04Z
2020-09-14T12:00:14Z,42.805,6.029,13.2971,4.59973,2470.04,2020-9-14T14:01:05Z
2020-09-14T12:03:18Z,42.805,6.029,13.2971,4.59976,2470.04,2020-9-14T14:04:09Z
2020-09-14T12:06:22Z,42.805,6.029,13.2973,4.59973,2470.017,2020-9-14T14:07:14Z
2020-09-14T12:09:24Z,42.805,6.029,13.2974,4.59975,2470.063,2020-9-14T14:10:16Z
2020-09-14T12:12:28Z,42.805,6.029,13.2974,4.59974,2470.04,2020-9-14T14:13:19Z
2020-09-14T12:15:29Z,42.805,6.029,13.2973,4.59975,2470.04,2020-9-14T14:16:21Z
2020-09-14T12:18:34Z,42.805,6.029,13.2977,4.59975,2470.077,2020-9-14T14:19:25Z
2020-09-14T12:21:37Z,42.805,6.029,13.2975,4.59974,2470.04,2020-9-14T14:22:28Z
2020-09-14T12:24:40Z,42.805,6.029,13.2975,4.59974,2470.04,2020-9-14T14:25:32Z
2020-09-14T12:27:44Z,42.805,6.029,13.2973,4.59976,2470.063,2020-9-14T14:28:36Z
2020-09-14T12:30:46Z,42.805,6.029,13.2974,4.59975,2470.063,2020-9-14T14:31:37Z
2020-09-14T12:33:48Z,42.805,6.029,13.2973,4.59975,2470.063,2020-9-14T14:34:40Z
2020-09-14T12:36:52Z,42.805,6.029,13.2970,4.59974,2470.053,2020-9-14T14:37:43Z
2020-09-14T12:39:53Z,42.805,6.029,13.2973,4.59974,2470.063,2020-9-14T14:40:45Z
2020-09-14T12:42:57Z,42.805,6.029,13.2972,4.59973,2470.077,2020-9-14T14:43:49Z
2020-09-14T12:46:01Z,42.805,6.029,13.2973,4.59975,2470.077,2020-9-14T14:46:52Z
2020-09-14T12:49:02Z,42.805,6.029,13.2975,4.59975,2470.04,2020-9-14T14:49:54Z
2020-09-14T12:52:03Z,42.805,6.029,13.2970,4.59974,2470.1,2020-9-14T14:52:55Z
2020-09-14T12:55:05Z,42.805,6.029,13.2974,4.59974,2470.063,2020-9-14T14:55:57Z
2020-09-14T12:58:08Z,42.805,6.029,13.2975,4.59973,2470.04,2020-9-14T14:58:59Z
2020-09-14T13:01:10Z,42.805,6.029,13.2976,4.59974,2470.04,2020-9-14T15:02:02Z
2020-09-14T13:04:14Z,42.805,6.029,13.2970,4.59976,2470.063,2020-9-14T15:05:05Z
2020-09-14T13:07:17Z,42.805,6.029,13.2968,4.59976,2470.063,2020-9-14T15:08:08Z
2020-09-14T13:10:22Z,42.805,6.029,13.2977,4.59975,2470.04,2020-9-14T15:11:13Z
2020-09-14T13:13:25Z,42.805,6.029,13.2972,4.59974,2470.077,2020-9-14T15:14:17Z
2020-09-14T13:16:28Z,42.805,6.029,13.2972,4.59973,2470.087,2020-9-14T15:17:20Z
2020-09-14T13:19:33Z,42.805,6.029,13.2974,4.59974,2470.053,2020-9-14T15:20:25Z
2020-09-14T13:22:37Z,42.805,6.029,13.2974,4.59976,2470.087,2020-9-14T15:23:28Z
2020-09-14T13:25:38Z,42.805,6.029,13.2976,4.59975,2470.077,2020-9-14T15:26:29Z
2020-09-14T13:28:41Z,42.805,6.029,13.2974,4.59973,2470.063,2020-9-14T15:29:33Z
2020-09-14T13:31:44Z,42.805,6.029,13.2974,4.59975,2470.1,2020-9-14T15:32:35Z
2020-09-14T13:34:45Z,42.805,6.029,13.2974,4.59976,2470.063,2020-9-14T15:35:37Z
2020-09-14T13:37:49Z,42.805,6.029,13.2974,4.59974,2470.087,2020-9-14T15:38:41Z
2020-09-14T13:40:53Z,42.805,6.029,13.2975,4.59975,2470.077,2020-9-14T15:41:44Z
2020-09-14T13:43:54Z,42.805,6.029,13.2974,4.59975,2470.073,2020-9-14T15:44:45Z
2020-09-14T13:46:59Z,42.805,6.029,13.2974,4.59973,2470.124,2020-9-14T15:47:50Z
2020-09-14T13:50:02Z,42.805,6.029,13.2974,4.59977,2470.11,2020-9-14T15:50:54Z
2020-09-14T13:53:04Z,42.805,6.029,13.2972,4.59974,2470.11,2020-9-14T15:53:56Z
2020-09-14T13:56:06Z,42.805,6.029,13.2971,4.59975,2470.11,2020-9-14T15:56:58Z
2020-09-14T13:59:09Z,42.805,6.029,13.2976,4.59975,2470.11,2020-9-14T16:00:01Z
2020-09-14T14:02:13Z,42.805,6.029,13.2972,4.59975,2470.124,2020-9-14T16:03:04Z
2020-09-14T14:05:17Z,42.805,6.029,13.2971,4.59975,2470.124,2020-9-14T16:06:08Z
2020-09-14T14:08:20Z,42.805,6.029,13.2971,4.59975,2470.124,2020-9-14T16:09:12Z
2020-09-14T14:11:22Z,42.805,6.029,13.2973,4.59974,2470.147,2020-9-14T16:12:13Z
2020-09-14T14:14:24Z,42.805,6.029,13.2974,4.59975,2470.124,2020-9-14T16:15:16Z
2020-09-14T14:17:28Z,42.805,6.029,13.2974,4.59975,2470.171,2020-9-14T16:18:19Z
2020-09-14T14:20:32Z,42.805,6.029,13.2975,4.59976,2470.133,2020-9-14T16:21:24Z
2020-09-14T14:23:34Z,42.805,6.029,13.2972,4.59976,2470.11,2020-9-14T16:24:25Z
2020-09-14T14:26:38Z,42.805,6.029,13.2976,4.59975,2470.087,2020-9-14T16:27:29Z
2020-09-14T14:29:40Z,42.805,6.029,13.2973,4.59974,2470.147,2020-9-14T16:30:32Z
2020-09-14T14:32:45Z,42.805,6.029,13.2971,4.59975,2470.133,2020-9-14T16:33:36Z
2020-09-14T14:35:47Z,42.805,6.029,13.2973,4.59976,2470.147,2020-9-14T16:36:38Z
2020-09-14T14:38:51Z,42.805,6.029,13.2976,4.59975,2470.133,2020-9-14T16:39:43Z
2020-09-14T14:41:54Z,42.805,6.029,13.2971,4.59975,2470.133,2020-9-14T16:42:46Z
2020-09-14T14:44:58Z,42.805,6.029,13.2977,4.59974,2470.147,2020-9-14T16:45:49Z
2020-09-14T14:48:03Z,42.805,6.029,13.2974,4.59975,2470.133,2020-9-14T16:48:54Z
2020-09-14T14:51:06Z,42.805,6.029,13.2972,4.59975,2470.156,2020-9-14T16:51:58Z
2020-09-14T14:54:10Z,42.805,6.029,13.2971,4.59975,2470.156,2020-9-14T16:55:02Z
2020-09-14T14:57:15Z,42.805,6.029,13.2972,4.59975,2470.143,2020-9-14T16:58:07Z
2020-09-14T15:00:19Z,42.805,6.029,13.2972,4.59974,2470.156,2020-9-14T17:01:11Z
2020-09-14T15:03:21Z,42.805,6.029,13.2976,4.59974,2470.156,2020-9-14T17:04:13Z
2020-09-14T15:06:25Z,42.805,6.029,13.2969,4.59975,2470.156,2020-9-14T17:07:16Z
2020-09-14T15:09:28Z,42.805,6.029,13.2976,4.59976,2470.133,2020-9-14T17:10:20Z
2020-09-14T15:12:29Z,42.805,6.029,13.2974,4.59976,2470.18,2020-9-14T17:13:21Z
2020-09-14T15:15:33Z,42.805,6.029,13.2974,4.59974,2470.156,2020-9-14T17:16:25Z
2020-09-14T15:18:38Z,42.805,6.029,13.2971,4.59974,2470.156,2020-9-14T17:19:29Z